Regional Weather Roundup
Issued by NWS

Home | Current Version | Previous Version | Graphics & Text | Print | Product List | Glossary Off
Versions: 1 2 3 4 5 6 7 8 9 10 11 12 13 14 15 16 17 18 19 20 21 22 23 24 25 26 27 28 29 30 31 32 33 34 35 36 37 38 39 40 41 42 43 44 45 46 47 48 49 50

000
ASUS43 KTOP 260559
RWRKS

WEATHER ROUNDUP FOR KANSAS
NATIONAL WEATHER SERVICE GOODLAND KS
100 AM CDT TUE MAY 26 2015

NOTE:  "FAIR" INDICATES FEW OR NO CLOUDS BELOW 12,000 FEET WITH NO
SIGNIFICANT WEATHER AND/OR OBSTRUCTIONS TO VISIBILITY.

KSZ001>006-013>018-027>032-041>047-260700-
NORTHWEST KANSAS

CITY           SKY/WX    TMP DP  RH WIND       PRES   REMARKS
GOODLAND       PTCLDY    50  48  93 W8        29.95R
6HR MIN TEMP:  50; 6HR MAX TEMP:  68;

HAYS           CLOUDY    61  52  72 N3        29.85R
HILL CITY      CLOUDY    59  51  75 W10       29.85S
6HR MIN TEMP:  59; 6HR MAX TEMP:  73;

RUSSELL        CLOUDY    60  58  92 S14       29.82S
6HR MIN TEMP:  60; 6HR MAX TEMP:  74; 6HR PCP:  0.01;

$$

KSZ061>065-074>080-084>089-260700-
SOUTHWEST KANSAS

CITY           SKY/WX    TMP DP  RH WIND       PRES   REMARKS
DODGE CITY     LGT RAIN  62  53  72 SW9       29.89R
6HR MIN TEMP:  61; 6HR MAX TEMP:  73; 6HR PCP:  0.03;

ELKHART          N/A     56  48  74 SW2         N/A
GARDEN CITY    CLOUDY    60  53  77 W8        29.90R
6HR MIN TEMP:  58; 6HR MAX TEMP:  72;

GREAT BEND     CLOUDY    59  55  88 S12       29.85S
LIBERAL        PTCLDY    57  50  77 SW6       29.90S
$$

KSZ066>073-081>083-090>101-260700-
SOUTHEAST KANSAS

CITY           SKY/WX    TMP DP  RH WIND       PRES   REMARKS
CHANUTE        CLOUDY    64  59  83 NW10      29.80F
6HR MIN TEMP:  63; 6HR MAX TEMP:  75; 6HR PCP:  0.18;

COFFEYVILLE    LGT RAIN  62  60  93 NW6       29.82S
6HR MIN TEMP:  62; 6HR MAX TEMP:  74; 6HR PCP:  0.22;

HUTCHINSON     CLOUDY    61  58  90 CALM      29.84R
6HR MIN TEMP:  60; 6HR MAX TEMP:  74; 6HR PCP:  0.28;

NEWTON         CLOUDY    59  54  82 SE7       29.88R
PARSONS        LGT RAIN  64  61  90 W6        29.82F
6HR MIN TEMP:  64; 6HR MAX TEMP:  75; 6HR PCP:  0.01;

WICHITA INTL   CLOUDY    60  58  92 S5        29.83F
6HR MIN TEMP:  60; 6HR MAX TEMP:  65; 6HR PCP:  0.38;

WICHITA JABRA  CLOUDY    58  57  97 E3        29.84F
6HR MIN TEMP:  58; 6HR MAX TEMP:  66; 6HR PCP:  0.28;

WICHITA MCCONL LGT RAIN  61  57  88 SE6       29.85R
WINFIELD       CLOUDY    60  58  92 NW6       29.85R
6HR MIN TEMP:  60; 6HR MAX TEMP:  73; 6HR PCP:  0.04;

$$

KSZ007>012-019>026-033>040-048>060-102>105-260700-
NORTHEAST KANSAS

CITY           SKY/WX    TMP DP  RH WIND       PRES   REMARKS
CONCORDIA      CLOUDY    63  55  75 S9        29.79S
6HR MIN TEMP:  60; 6HR MAX TEMP:  63;

EMPORIA        LGT RAIN  61  57  87 SW6       29.85R
6HR MIN TEMP:  61; 6HR MAX TEMP:  76; 6HR PCP:  0.05;

LAWRENCE       LGT RAIN  62  60  93 N7        29.85F
6HR MIN TEMP:  62; 6HR MAX TEMP:  78; 6HR PCP:  0.31;

MANHATTAN      LGT RAIN  64  59  83 CALM      29.79S
6HR MIN TEMP:  61; 6HR MAX TEMP:  65; 6HR PCP:  0.27;

OLATHE IND     LGT RAIN  62  60  93 W13       29.85F
6HR MIN TEMP:  62; 6HR MAX TEMP:  77; 6HR PCP:  0.25;

OLATHE EXE     LGT RAIN  64  62  93 VRB7G17   29.85R
6HR MIN TEMP:  64; 6HR MAX TEMP:  76; 6HR PCP:  0.15;

SALINA         CLOUDY    63  57  81 E7        29.82R
6HR MIN TEMP:  63; 6HR MAX TEMP:  67; 6HR PCP:  0.08;

TOPEKA BILLARD LGT RAIN  62  61  96 E9        29.86S
6HR MIN TEMP:  62; 6HR MAX TEMP:  78; 6HR PCP:  0.33;

TOPEKA FORBES  LGT RAIN  63  60  90 E8        29.85S
6HR MIN TEMP:  63; 6HR MAX TEMP:  79; 6HR PCP:  0.35;

$$


USA.gov is the U.S. government's official web portal to all federal, state and local government web resources and services.